Date,TemperatureHighF,TemperatureAvgF,TemperatureLowF,DewpointHighF,DewpointAvgF,DewpointLowF,HumidityHigh,HumidityAvg,HumidityLow,PressureMaxIn,PressureMinIn,WindSpeedMaxMPH,WindSpeedAvgMPH,GustSpeedMaxMPH,PrecipitationSumIn
2013-6-1,90.4,82.5,75.7,78.0,76.1,74.0,93,81,64,29.92,29.86,10,4,18,0.00
2013-6-2,86.2,76.7,69.4,75.0,72.1,68.0,96,86,65,30.01,29.86,8,1,14,0.83
2013-6-3,90.4,79.4,70.6,74.0,71.5,69.0,95,78,57,29.93,29.82,7,1,9,0.00
2013-6-4,97.2,83.0,71.9,77.0,72.6,69.0,92,73,43,29.92,29.81,5,1,7,0.00
2013-6-5,95.9,83.0,74.9,80.0,76.0,73.0,95,81,53,29.89,29.76,8,2,10,0.00
2013-6-6,91.3,77.0,67.1,79.0,73.0,65.0,96,88,66,29.86,29.71,9,1,24,0.70
2013-6-7,86.3,74.2,66.6,72.0,68.5,66.0,97,84,55,29.90,29.82,7,1,10,0.00
2013-6-8,89.4,77.1,67.9,75.0,70.2,63.0,95,80,60,29.92,29.84,9,1,17,0.00
2013-6-9,91.3,76.6,70.2,78.0,72.2,69.0,96,87,63,29.96,29.85,5,1,11,0.34
2013-6-10,93.3,80.9,69.9,79.0,74.2,69.0,97,81,58,29.98,29.93,7,1,11,0.00
2013-6-11,93.8,83.3,74.5,80.0,76.3,73.0,96,81,59,30.05,29.97,6,1,11,0.00
2013-6-12,94.3,83.5,73.7,79.0,76.2,73.0,96,80,59,30.07,29.98,7,1,10,0.00
2013-6-13,95.2,83.5,73.6,79.0,75.8,72.0,96,79,53,30.05,29.89,5,1,9,0.00
2013-6-14,94.6,83.5,72.6,81.0,77.0,70.0,96,82,59,29.96,29.84,7,1,14,0.89
2013-6-15,95.6,82.6,73.1,81.0,75.9,71.0,96,81,59,29.98,29.89,5,1,9,0.05
2013-6-16,94.0,84.0,74.3,78.0,75.4,73.0,95,77,56,30.03,29.93,7,1,13,0.00
2013-6-17,95.0,83.1,72.9,78.0,75.0,71.0,96,78,55,30.00,29.89,7,1,13,0.01
2013-6-18,92.5,82.0,72.8,77.0,74.6,71.0,95,79,55,29.97,29.88,9,1,13,0.45
2013-6-19,87.2,77.9,72.4,78.0,73.6,71.0,96,87,66,30.00,29.92,4,1,8,0.21
2013-6-20,94.9,80.9,73.3,78.0,75.1,71.0,96,84,50,30.08,29.98,6,0,17,0.09
2013-6-21,92.9,80.9,72.8,80.0,75.5,72.0,97,84,62,30.10,30.02,5,1,9,0.04
2013-6-22,94.4,82.6,73.0,77.0,74.8,72.0,96,79,56,30.07,29.95,5,1,10,0.00
2013-6-23,93.0,81.6,73.9,79.0,75.1,72.0,96,82,57,30.03,29.96,9,1,18,0.75
2013-6-24,92.7,83.0,74.6,78.0,75.1,73.0,94,78,60,30.08,30.01,7,2,17,0.01
2013-6-25,94.1,81.7,73.1,79.0,75.4,71.0,96,82,57,30.06,29.96,6,1,11,0.11
2013-6-26,95.3,84.9,75.7,79.0,76.2,74.0,93,76,55,30.02,29.93,7,1,11,0.00
2013-6-27,97.6,83.4,72.6,79.0,75.8,71.0,96,79,54,30.01,29.91,7,1,9,0.00
2013-6-28,96.2,85.2,77.8,80.0,76.9,72.0,95,78,48,29.97,29.78,9,2,11,0.00
2013-6-29,97.6,87.3,79.1,82.0,75.7,70.0,89,70,48,29.81,29.67,10,2,16,0.00
2013-6-30,92.3,83.6,72.8,73.0,66.7,62.0,90,60,38,29.81,29.73,9,1,14,0.00